www.pogodaiklimat.ru

Погода и климат >> Архив погоды >> Филиппины >> Дагупан


ПОГОДА в Дагупане

  • Прогноз погоды в Дагупане
  • Монитор погоды в Дагупане

АРХИВ ПОГОДЫ в Дагупане

Время (UTC), дата Ветер
(напр.,м/с)
 
Видим.   Явления Облачность Т
(С)
Тd
(С)
f
(%)
Тe
(С)
Тes
(С)
Комфортность P
(гПа)
Po
(гПа)
Тmin
(С)
Tmax
(С)
R
(мм)
R24
(мм)
S
(см)
03 15.08 Ю 1 10 км мгла {туман} 9/4 480 м
[Sc Ac As]
+30.5 +26.6 80 +47 +53 опасность
перегрева
1009.2 1009.0
06 15.08 ЮЗ 2 10 км слаб. ливневой дождь {туман} 9/4 480 м
[Sc Ac As]
+30.0 +27.4 86 +48 +52 опасность
перегрева
1007.7 1007.5 2
09 15.08 З 4 10 км мгла {туман} 8/4 480 м
[Sc Ac As]
+31.8 +26.7 74 +49 +49 опасность
перегрева
1007.2 1007.0
12 15.08 Ю 2 8000 м {туман} 5/3 500 м
[Cu med, cong Ac As]
+28.8 +26.2 86 +44 +44 опасность
перегрева
1008.4 1008.2 +31.0
15 15.08 З 2 8000 м 9/4 480 м
[Sc Ac As]
+28.5 +25.9 86 +43 +43 опасность
перегрева
1009.2 1009.0
18 15.08 Ю 2 8000 м осадки на расстоянии 9/4 480 м
[Sc Ac As]
+27.2 +25.6 91 +40 +40 очень
душно
1008.6 1008.4
21 15.08 Ю 2 8000 м 6/3 500 м
[Cu med, cong Ac As]
+26.5 +25.2 93 +38 +38 очень
душно
1008.6 1008.4 0.4
00 16.08 Ю 2 12 км мгла {туман} 8/3 500 м
[Cu med, cong Ac As]
+28.0 0.0 16 +26 +28 жарко 1009.4 1009.2 +26.0 2
03 16.08 С 2 12 км мгла {туман} 9/3 500 м
[Cu med, cong Ac As]
+30.8 +27.0 80 +48 +54 опасность
перегрева
1009.9 1009.7
06 16.08 С 2 12 км мгла {гроза} 9/4 480 м
[Cu med, cong Ac As]
+32.2 +28.7 82 +55 +59 опасность
перегрева
1008.7 1008.5
09 16.08 З 3 12 км мгла {туман} 8/3 480 м
[Cu med, cong Ac As]
+32.2 +28.4 80 +54 +54 опасность
перегрева
1008.5 1008.3
12 16.08 ЮЗ 2 8000 м {туман} 5/3 480 м
[Cu med, cong Ac As]
+29.3 +26.6 85 +45 +45 опасность
перегрева
1010.8 1010.6 +32.5
15 16.08 С 2 8000 м 5/3 480 м
[Cu med, cong Ac As]
+28.4 +25.8 86 +42 +42 опасность
перегрева
1011.9 1011.7
18 16.08 СВ 2 8000 м 9/4 480 м
[Cu med, cong Ac As]
+27.9 +25.4 86 +41 +41 опасность
перегрева
1010.4 1010.2
21 16.08 Ю 2 8000 м {ливн. осадки} 6/3 480 м
[Cu med, cong Ac As]
+27.6 +25.5 88 +40 +40 очень
душно
1009.6 1009.4 0.8
00 17.08 Ю 2 12 км мгла {туман} 4/1 500 м
[Cu med, cong Ci fib]
+28.3 0.0 16 +26 +31 жарко 1011.2 1011.0 +25.2 0.8
03 17.08 С 2 12 км мгла {туман} 6/3 500 м
[Cu med, cong Ci fib]
+31.7 +27.8 80 +52 +65 опасность
перегрева
1011.4 1011.2
06 17.08 С 3 12 км мгла {туман} 8/3 480 м
[Cu med, cong Ci fib]
+23.7 +28.8 100 +32 +41 очень
душно
1009.1 1008.9
09 17.08 С 3 12 км мгла {туман} 8/3 480 м
[Cu med, cong Ci fib]
+31.8 +28.5 83 +54 +55 опасность
перегрева
1008.6 1008.4
12 17.08 С 3 8000 м {туман} 8/3 480 м
[Cu med, cong Ci fib]
+29.6 +27.3 87 +47 +47 опасность
перегрева
1010.9 1010.7 +32.8
15 17.08 С 2 8000 м 9/4 480 м
[Cu med, cong Ac As]
+28.8 +25.5 82 +42 +42 опасность
перегрева
1011.9 1011.7
18 17.08 С 3 8000 м 9/4 480 м
[Cu med, cong Ci sp]
+28.7 +25.4 82 +42 +42 опасность
перегрева
1010.3 1010.1
21 17.08 Ю 2 8000 м 8/3 480 м
[Cu med, cong Ci sp]
+27.8 +25.4 87 +41 +41 опасность
перегрева
1010.1 1009.9
00 18.08 В 2 10 км мгла {туман} 9/3 480 м
[Cu med, cong Ci sp]
+28.3 +25.6 85 +42 +45 опасность
перегрева
1010.5 1010.3 +25.0
03 18.08 СЗ 2 10 км мгла {туман} 9/3 480 м
[Cu med, cong Ci sp]
+30.5 +26.6 80 +47 +59 опасность
перегрева
1010.9 1010.7
06 18.08 СЗ 6 10 км осадки на расстоянии {ливн. осадки, туман} 9/4 480 м
[Sc Ac As]
+29.0 +27.1 90 +46 +48 опасность
перегрева
1008.6 1008.4 0.0
09 18.08 СЗ 6 10 км осадки на расстоянии {гроза, туман} 9/4 480 м
[Sc Ac As]
+29.0 +26.4 86 +44 +45 опасность
перегрева
1007.6 1007.4
12 18.08 З 4 8000 м {туман} 8/4 480 м
[Sc Ac As]
+28.5 +26.3 88 +43 +43 опасность
перегрева
1008.9 1008.7 +30.0
15 18.08 СЗ 2 8000 м 8/4 480 м
[Sc Ac As]
+28.3 +26.0 87 +42 +42 опасность
перегрева
1009.7 1009.5
18 18.08 В 2 8000 м 8/4 480 м
[Sc Ac As]
+27.8 +25.4 87 +41 +41 опасность
перегрева
1008.2 1008.0
21 18.08 Ю 2 8000 м 6/3 500 м
[Cu med, cong Ac As]
+26.8 +25.1 90 +39 +39 очень
душно
1007.6 1007.4
00 19.08 Ю 2 10 км мгла {туман} 8/3 500 м
[Cu med, cong Ci sp]
+27.2 +25.4 90 +40 +44 очень
душно
1008.3 1008.1 +26.0 0.0
03 19.08 СЗ 2 10 км мгла {туман} 8/3 480 м
[Cu med, cong Ac As]
+30.5 +27.0 82 +48 +55 опасность
перегрева
1008.7 1008.5
06 19.08 С 2 10 км мгла {гроза} 9/4 480 м
[Sc Ac As]
+30.8 +27.0 80 +48 +52 опасность
перегрева
1006.9 1006.7 0.0
09 19.08 С 2 10 км слаб. ливневой дождь {гроза} 9/4 480 м
[Sc Ac As]
+29.0 +26.1 84 +44 +44 опасность
перегрева
1006.7 1006.5 0.0
12 19.08 СЗ 2 8000 м слаб. дождь {гроза} 8/4 480 м
[Sc Ac As]
+28.5 +25.9 86 +43 +43 опасность
перегрева
1008.2 1008.0 +31.0 0.0
15 19.08 СЗ 2 8000 м 6/3 500 м
[Cu med, cong Ac As]
+28.2 +26.0 88 +42 +42 опасность
перегрева
1008.7 1008.5
18 19.08 В 2 8000 м {ливн. осадки} 6/3 480 м
[Cu med, cong Ac As]
+27.9 +25.4 86 +41 +41 опасность
перегрева
1007.3 1007.1 0.0
21 19.08 Ю 2 8000 м 6/3 500 м
[Cu med, cong Ac As]
+25.8 +24.7 94 +37 +37 очень
душно
1007.2 1007.0
00 20.08 Ю 2 10 км мгла {туман} 9/3 500 м
[Cu med, cong Ac As]
+27.2 0.0 17 +25 +27 комфорт 1008.6 1008.4 +25.5 0.0
03 20.08 С 1 12 км мгла {туман} 6/3 500 м
[Cu med, cong Ci fib]
+30.6 +26.8 80 +48 +63 опасность
перегрева
1008.6 1008.4
06 20.08 С 2 10 км осадки на расстоянии {гроза, туман} 9/4 480 м
[Sc Ac As]
+32.5 +26.7 72 +50 +54 опасность
перегрева
1006.4 1006.2
09 20.08 Ю 1 10 км осадки на расстоянии {ливн. осадки, туман} 9/4 480 м
[Sc Ac As]
+30.0 +26.8 83 +47 +47 опасность
перегрева
1006.4 1006.2 12
12 20.08 Ю 1 8000 м осадки на расстоянии {ливн. осадки, туман} 8/4 480 м
[Sc Ac As]
+29.0 +26.0 84 +44 +44 опасность
перегрева
1008.0 1007.8 +33.0 12
15 20.08 С 1 8000 м 8/4 480 м
[Sc Ac As]
+28.5 +26.6 89 +44 +44 опасность
перегрева
1008.8 1008.6
18 20.08 С 1 8000 м слаб. ливневой дождь 10/4 480 м
[Sc Ac As]
+27.0 +26.4 97 +41 +41 опасность
перегрева
1007.1 1006.9 6
21 20.08 В 1 8000 м {ливн. осадки} 10/4 480 м
[Sc Ac As]
+25.3 +24.6 96 +36 +36 очень
душно
1006.4 1006.2 0.2
00 21.08 С 2 10 км осадки на расстоянии {ливн. осадки} 10/4 480 м
[Sc Ac As]
+27.8 +25.4 87 +41 +42 опасность
перегрева
1008.2 1008.0 +25.0 18
03 21.08 СЗ 2 10 км мгла {туман} 9/4 480 м
[Sc Ac As]
+30.5 +25.7 76 +45 +51 опасность
перегрева
1006.2 1006.0
06 21.08 С 4 10 км мгла {туман} 9/4 480 м
[Sc Ac As]
+32.0 +26.9 74 +49 +52 опасность
перегрева
1005.5 1005.3
09 21.08 СЗ 7 10 км слаб. ливневой дождь {гроза} 10/4 480 м
[Sc Ac As]
+26.2 +24.9 93 +37 +38 очень
душно
1006.8 1006.6 2
12 21.08 СЗ 2 8000 м {гроза, дождь} 8/3 480 м
[Cu med, cong Ac As]
+26.5 +24.8 90 +38 +38 очень
душно
1007.6 1007.4 +32.5 4
15 21.08 Ю 2 8000 м 8/3 480 м
[Cu med, cong Ac As]
+26.0 +24.7 93 +37 +37 очень
душно
1009.4 1009.2
18 21.08 СВ 2 8000 м слаб. ливневой дождь 8/4 480 м
[Sc Ac As]
+25.8 +24.5 93 +36 +36 очень
душно
1007.9 1007.7 0.4
21 21.08 С 2 8000 м 8/3 480 м
[Cu med, cong Ac As]
+25.8 +24.5 93 +36 +36 очень
душно
1007.1 1006.9

 

Местоположение метеостанции Дагупан (Филиппины): широта 16.05 долгота 120.33 высота над уровнем моря 2 м.

В архиве по умолчанию представлена погода в Дагупане за последнюю неделю. Архивные данные за месяц целиком и за предыдущие месяцы, начиная с января 2011 года, Вы можете получить, выбрав интересующий диапазон дат из раскрывающегося списка и нажав кнопку "Ввод!".


*Определитесь, кто Вы:
робот инопланетянин человек

Внимание! Время в таблицах - всемирное. Для получения местного времени необходимо прибавить поправку, которая равна 8 ч.

Смотрите также архив погоды в соседних городах и на ближайших метеорологических станциях:

Погода в Багио (Филиппины) (50 км)
Погода в Ибе (Филиппины) (89 км)
Погода в Кабанатуане (Филиппины) (93 км)
Погода на Базе ВВС Clark (Филиппины) (101 км)
Погода в Куби Пойнт (Филиппины) (139 км)
Погода в Балер Радар (Филиппины) (143 км)
Погода в Научном саду (Филиппины) (174 км)
Погода в Маниле (Филиппины) (178 км)
Погода в Сангли Пойнт (Филиппины) (183 км)
Погода в Аэропорту Ninoy Aquino (Филиппины) (185 км)

Пояснения к столбцам:

Ветер - указаны скорость ветра в м/с - средняя за 10 мин, порывы в срок и между сроками (в фигурных скобках) и направление, откуда дует ветер: С - северный, СВ - северо-восточный, В - восточный, ЮВ - юго-восточный, Ю - южный, ЮЗ - юго-западный, З - западный, СЗ - северо-западный.
Видимость - горизонтальная дальность видимости в метрах или километрах. При видимости от 1 до 10 км при отсутствии осадков обычно наблюдается дымка, при ухудшении видимости до 1 км и менее - туман. В сухую погоду видимость может ухудшаться дымом, пылью или мглою.
Явления - указаны атмосферные явления, наблюдавшиеся в срок или в последний час перед сроком; фигурными скобками обозначены явления, наблюдавшиеся между сроками (за 1-3 часа до срока); квадратными скобками обозначены град или гололедные отложения с указанием их диаметра в мм.
Облачность - указаны через наклонную черту общая и нижняя облачность в баллах и высота нижней границы облаков в метрах; квадратными скобками обозначены формы облаков: Ci - перистые, Cs - перисто-слоистые, Cc - перисто-кучевые, Ac - высококучевые, As - высокослоистые, Sc - слоисто-кучевые, Ns - слоисто-дождевые, Cu - кучевые, Cb - кучево-дождевые. Подробнее классификацию облаков см. в Атласе облаков (PDF).
T - Температура воздуха - температура, измеренная на высоте 2 м над землей.
Td - Температура точки росы - температура, при понижении до которой содержащийся в воздухе водяной пар достигнет насыщения.
f - Относительная влажность воздуха - влажноcть воздуха, измеренная на высоте 2 м над землей.
Te - Эффективная температура - температура, которую ощущает одетый по сезону человек в тени. Характеристика душности погоды. При расчете учитывается влияние влажности воздуха и скорости ветра на теплоощущения человека.
Tes - Эффективная температура на солнце - температура, которую ощущает человек, с поправкой на солнечный нагрев. Характеристика знойности погоды. Зависит от высоты солнца над горизонтом, облачности и скорости ветра. Ночью, в пасмурную погоду, а также при ветре 12 м/с и более поправка равна нулю.
P - Атмосферное давление - приведенное к уровню моря атмосферное давление.
Po - Атмосферное давление - измеренное на уровне метеостанции атмосферное давление.
Tmin - Минимальная температура - минимум температуры воздуха на высоте 2 м над землей.
Tmax - Максимальная температура - максимум температуры воздуха на высоте 2 м над землей.
R - Количество осадков - Количество выпавших осадков за период времени, мм. При наведении курсора мыши на число - период времени, за который выпало указанное количество осадков.
R24 - Количество осадков - Количество выпавших осадков за 24 часа, мм.
S - Снежный покров - Высота снежного покрова, см. При наведении курсора мыши на число - состояние снежного покрова и степень покрытия местности в баллах.